Time,TemperatureF,DewpointF,PressureIn,WindDirection,WindDirectionDegrees,WindSpeedMPH,WindSpeedGustMPH,Humidity,HourlyPrecipIn,Conditions,Clouds,dailyrainin,SolarRadiationWatts/m^2,SoftwareType,DateUTC
2013-08-10 00:01:00,65.3,51.1,30.01,WNW,282,0.0,0.0,60,0.00,,---,0.00,0.00,VWS V14.01,2013-08-10 05:01:00,
2013-08-10 00:06:00,65.2,51.0,30.01,WNW,292,2.0,2.0,60,0.00,,---,0.00,0.00,VWS V14.01,2013-08-10 05:06:00,
2013-08-10 00:11:00,65.2,51.0,30.01,WNW,292,0.0,2.0,60,0.00,,---,0.00,0.00,VWS V14.01,2013-08-10 05:11:00,
2013-08-10 00:16:00,65.2,51.0,30.01,WNW,291,0.0,0.0,60,0.00,,---,0.00,0.00,VWS V14.01,2013-08-10 05:16:00,
2013-08-10 00:21:00,65.0,50.8,30.01,WNW,285,0.0,0.0,60,0.00,,---,0.00,0.00,VWS V14.01,2013-08-10 05:21:00,
2013-08-10 00:26:00,65.0,50.8,30.01,NNE,13,0.0,0.0,60,0.00,,---,0.00,0.00,VWS V14.01,2013-08-10 05:26:00,
2013-08-10 00:31:00,65.0,50.8,30.01,North,11,0.0,2.0,60,0.00,,---,0.00,0.00,VWS V14.01,2013-08-10 05:31:00,
2013-08-10 00:36:00,64.8,50.6,30.01,NNE,14,0.0,0.0,60,0.00,,---,0.00,0.00,VWS V14.01,2013-08-10 05:36:00,
2013-08-10 00:41:00,64.7,50.5,30.01,NNE,14,0.0,0.0,60,0.00,,---,0.00,0.00,VWS V14.01,2013-08-10 05:41:00,
2013-08-10 00:46:00,64.7,51.4,30.01,NNE,14,0.0,0.0,62,0.00,,---,0.00,0.00,VWS V14.01,2013-08-10 05:46:00,
2013-08-10 00:51:00,64.7,51.4,30.01,NNE,14,0.0,0.0,62,0.00,,---,0.00,0.00,VWS V14.01,2013-08-10 05:51:00,
2013-08-10 00:56:00,64.5,51.2,30.01,NNE,14,0.0,0.0,62,0.00,,---,0.00,0.00,VWS V14.01,2013-08-10 05:56:00,
2013-08-10 01:01:00,64.3,51.0,30.01,NNE,14,0.0,0.0,62,0.00,,---,0.00,0.00,VWS V14.01,2013-08-10 06:01:00,
2013-08-10 01:06:00,64.3,51.5,30.01,NNE,14,0.0,0.0,63,0.00,,---,0.00,0.00,VWS V14.01,2013-08-10 06:06:00,
2013-08-10 01:11:00,64.2,51.4,30.01,NNE,14,0.0,0.0,63,0.00,,---,0.00,0.00,VWS V14.01,2013-08-10 06:11:00,
2013-08-10 01:16:00,64.0,51.6,30.01,NNE,14,0.0,0.0,64,0.00,,---,0.00,0.00,VWS V14.01,2013-08-10 06:16:00,
2013-08-10 01:21:00,63.9,51.5,30.01,NNE,14,0.0,0.0,64,0.00,,---,0.00,0.00,VWS V14.01,2013-08-10 06:21:00,
2013-08-10 01:26:00,63.9,51.5,30.01,NNE,14,0.0,0.0,64,0.00,,---,0.00,0.00,VWS V14.01,2013-08-10 06:26:00,
2013-08-10 01:31:00,63.7,51.3,30.01,NNE,14,0.0,0.0,64,0.00,,---,0.00,0.00,VWS V14.01,2013-08-10 06:31:00,
2013-08-10 01:36:00,63.5,51.1,30.01,NNE,14,0.0,0.0,64,0.00,,---,0.00,0.00,VWS V14.01,2013-08-10 06:36:00,
2013-08-10 01:41:00,63.4,51.0,30.01,NNE,14,0.0,0.0,64,0.00,,---,0.00,0.00,VWS V14.01,2013-08-10 06:41:00,
2013-08-10 01:46:00,63.4,51.0,30.01,NNE,14,0.0,0.0,64,0.00,,---,0.00,0.00,VWS V14.01,2013-08-10 06:46:00,
2013-08-10 01:51:00,63.4,51.0,30.01,NNE,14,0.0,0.0,64,0.00,,---,0.00,0.00,VWS V14.01,2013-08-10 06:51:00,
2013-08-10 01:56:00,63.2,50.8,30.01,NNE,14,0.0,0.0,64,0.00,,---,0.00,0.00,VWS V14.01,2013-08-10 06:56:00,
2013-08-10 02:01:00,63.1,52.4,30.02,NNE,14,0.0,0.0,68,0.00,,---,0.00,0.00,VWS V14.01,2013-08-10 07:01:00,
2013-08-10 02:06:00,62.9,52.2,30.02,NNE,14,0.0,0.0,68,0.00,,---,0.00,0.00,VWS V14.01,2013-08-10 07:06:00,
2013-08-10 02:11:00,62.9,52.2,30.02,NNE,14,0.0,0.0,68,0.00,,---,0.00,0.00,VWS V14.01,2013-08-10 07:11:00,
2013-08-10 02:16:00,62.9,52.2,30.02,NNE,14,0.0,0.0,68,0.00,,---,0.00,0.00,VWS V14.01,2013-08-10 07:16:00,
2013-08-10 02:21:00,62.9,52.2,30.02,NNE,14,0.0,0.0,68,0.00,,---,0.00,0.00,VWS V14.01,2013-08-10 07:21:00,
2013-08-10 02:26:00,62.7,52.8,30.02,NNE,14,0.0,0.0,70,0.00,,---,0.00,0.00,VWS V14.01,2013-08-10 07:26:00,
2013-08-10 02:31:00,62.7,52.8,30.02,NNE,14,0.0,0.0,70,0.00,,---,0.00,0.00,VWS V14.01,2013-08-10 07:31:00,
2013-08-10 02:36:00,62.7,52.8,30.02,NNE,14,1.0,1.0,70,0.00,,---,0.00,0.00,VWS V14.01,2013-08-10 07:36:00,
2013-08-10 02:41:00,62.7,52.8,30.02,NNE,14,0.0,0.0,70,0.00,,---,0.00,0.00,VWS V14.01,2013-08-10 07:41:00,
2013-08-10 02:46:00,62.7,52.8,30.03,NNE,14,0.0,0.0,70,0.00,,---,0.00,0.00,VWS V14.01,2013-08-10 07:46:00,
2013-08-10 02:51:00,62.7,52.8,30.03,NNE,14,0.0,0.0,70,0.00,,---,0.00,0.00,VWS V14.01,2013-08-10 07:51:00,
2013-08-10 02:56:00,62.7,52.8,30.03,NNE,14,0.0,0.0,70,0.00,,---,0.00,0.00,VWS V14.01,2013-08-10 07:56:00,
2013-08-10 03:01:00,62.7,52.8,30.04,NNE,14,0.0,0.0,70,0.00,,---,0.00,0.00,VWS V14.01,2013-08-10 08:01:00,
2013-08-10 03:06:00,62.6,52.7,30.04,North,7,0.0,0.0,70,0.00,,---,0.00,0.00,VWS V14.01,2013-08-10 08:06:00,
2013-08-10 03:11:00,62.6,52.7,30.04,WNW,291,1.0,1.0,70,0.00,,---,0.00,0.00,VWS V14.01,2013-08-10 08:11:00,
2013-08-10 03:16:00,62.6,52.7,30.04,WNW,292,2.0,2.0,70,0.00,,---,0.00,0.00,VWS V14.01,2013-08-10 08:16:00,
2013-08-10 03:21:00,62.6,52.7,30.04,WNW,291,0.0,0.0,70,0.00,,---,0.00,0.00,VWS V14.01,2013-08-10 08:21:00,
2013-08-10 03:26:00,62.6,52.7,30.04,WNW,291,0.0,0.0,70,0.00,,---,0.00,0.00,VWS V14.01,2013-08-10 08:26:00,
2013-08-10 03:31:00,62.6,53.1,30.04,WNW,291,0.0,0.0,71,0.00,,---,0.00,0.00,VWS V14.01,2013-08-10 08:31:00,
2013-08-10 03:36:00,62.4,52.9,30.04,WNW,291,1.0,1.0,71,0.00,,---,0.00,0.00,VWS V14.01,2013-08-10 08:36:00,
2013-08-10 03:41:00,62.3,52.8,30.04,WNW,291,0.0,0.0,71,0.00,,---,0.00,0.00,VWS V14.01,2013-08-10 08:41:00,
2013-08-10 03:46:00,62.3,52.8,30.04,WNW,291,0.0,0.0,71,0.00,,---,0.00,0.00,VWS V14.01,2013-08-10 08:46:00,
2013-08-10 03:51:00,62.1,53.0,30.04,WNW,291,1.0,1.0,72,0.00,,---,0.00,0.00,VWS V14.01,2013-08-10 08:51:00,
2013-08-10 03:56:00,62.0,52.9,30.04,WNW,291,0.0,0.0,72,0.00,,---,0.00,0.00,VWS V14.01,2013-08-10 08:56:00,
2013-08-10 04:01:00,61.8,52.7,30.04,WNW,291,0.0,0.0,72,0.00,,---,0.00,0.00,VWS V14.01,2013-08-10 09:01:00,
2013-08-10 04:06:00,61.8,52.7,30.04,WNW,291,0.0,1.0,72,0.00,,---,0.00,0.00,VWS V14.01,2013-08-10 09:06:00,
2013-08-10 04:11:00,61.8,52.7,30.04,WNW,291,0.0,0.0,72,0.00,,---,0.00,0.00,VWS V14.01,2013-08-10 09:11:00,
2013-08-10 04:16:00,61.8,52.7,30.05,WNW,291,1.0,1.0,72,0.00,,---,0.00,0.00,VWS V14.01,2013-08-10 09:16:00,
2013-08-10 04:21:00,61.8,52.7,30.05,WNW,291,0.0,0.0,72,0.00,,---,0.00,0.00,VWS V14.01,2013-08-10 09:21:00,
2013-08-10 04:26:00,61.8,52.7,30.05,WNW,291,0.0,0.0,72,0.00,,---,0.00,0.00,VWS V14.01,2013-08-10 09:26:00,
2013-08-10 04:31:00,61.6,52.5,30.05,WNW,291,0.0,0.0,72,0.00,,---,0.00,0.00,VWS V14.01,2013-08-10 09:31:00,
2013-08-10 04:36:00,61.6,52.5,30.05,WNW,291,0.0,1.0,72,0.00,,---,0.00,0.00,VWS V14.01,2013-08-10 09:36:00,
2013-08-10 04:41:00,61.5,52.4,30.05,WNW,291,0.0,0.0,72,0.00,,---,0.00,0.00,VWS V14.01,2013-08-10 09:41:00,
2013-08-10 04:46:00,61.3,52.2,30.05,WNW,291,1.0,1.0,72,0.00,,---,0.00,0.00,VWS V14.01,2013-08-10 09:46:00,
2013-08-10 04:51:00,61.3,52.2,30.05,WNW,291,0.0,0.0,72,0.00,,---,0.00,0.00,VWS V14.01,2013-08-10 09:51:00,
2013-08-10 04:56:00,61.0,51.9,30.05,WNW,288,2.0,2.0,72,0.00,,---,0.00,0.00,VWS V14.01,2013-08-10 09:56:00,
2013-08-10 05:01:00,60.9,51.8,30.05,WNW,288,0.0,0.0,72,0.00,,---,0.00,0.00,VWS V14.01,2013-08-10 10:01:00,
2013-08-10 05:06:00,60.7,52.0,30.05,WNW,288,1.0,1.0,73,0.00,,---,0.00,0.00,VWS V14.01,2013-08-10 10:06:00,
2013-08-10 05:11:00,60.5,51.8,30.05,WNW,287,1.0,1.0,73,0.00,,---,0.00,0.00,VWS V14.01,2013-08-10 10:11:00,
2013-08-10 05:16:00,60.2,51.9,30.06,WNW,287,0.0,0.0,74,0.00,,---,0.00,0.00,VWS V14.01,2013-08-10 10:16:00,
2013-08-10 05:21:00,60.1,52.2,30.06,WNW,287,0.0,0.0,75,0.00,,---,0.00,0.00,VWS V14.01,2013-08-10 10:21:00,
2013-08-10 05:26:00,59.9,52.3,30.06,WNW,287,0.0,0.0,76,0.00,,---,0.00,0.00,VWS V14.01,2013-08-10 10:26:00,
2013-08-10 05:31:00,59.8,52.2,30.06,WNW,287,0.0,0.0,76,0.00,,---,0.00,0.00,VWS V14.01,2013-08-10 10:31:00,
2013-08-10 05:36:00,59.6,52.0,30.06,WNW,287,0.0,0.0,76,0.00,,---,0.00,0.00,VWS V14.01,2013-08-10 10:36:00,
2013-08-10 05:41:00,59.6,52.0,30.06,WNW,287,0.0,0.0,76,0.00,,---,0.00,0.00,VWS V14.01,2013-08-10 10:41:00,
2013-08-10 05:46:00,59.2,52.0,30.06,WNW,294,0.0,0.0,77,0.00,,---,0.00,0.00,VWS V14.01,2013-08-10 10:46:00,
2013-08-10 05:51:00,58.9,51.7,30.06,WNW,294,0.0,1.0,77,0.00,,---,0.00,0.00,VWS V14.01,2013-08-10 10:51:00,
2013-08-10 05:56:00,58.7,51.9,30.06,WNW,295,0.0,2.0,78,0.00,,---,0.00,0.00,VWS V14.01,2013-08-10 10:56:00,
2013-08-10 06:01:00,58.6,51.8,30.06,WNW,295,0.0,0.0,78,0.00,,---,0.00,0.00,VWS V14.01,2013-08-10 11:01:00,
2013-08-10 06:06:00,58.4,51.6,30.06,WNW,285,1.0,1.0,78,0.00,,---,0.00,0.00,VWS V14.01,2013-08-10 11:06:00,
2013-08-10 06:10:00,58.4,51.9,30.06,WNW,285,0.0,0.0,79,0.00,,---,0.00,0.00,VWS V14.01,2013-08-10 11:10:00,
2013-08-10 06:15:00,58.3,51.8,30.06,WNW,285,0.0,0.0,79,0.00,,---,0.00,0.00,VWS V14.01,2013-08-10 11:15:00,
2013-08-10 06:20:00,58.3,52.2,30.06,WNW,285,0.0,0.0,80,0.00,,---,0.00,0.00,VWS V14.01,2013-08-10 11:20:00,
2013-08-10 06:25:00,58.1,52.0,30.06,WNW,285,0.0,0.0,80,0.00,,---,0.00,0.00,VWS V14.01,2013-08-10 11:25:00,
2013-08-10 06:30:00,58.0,51.9,30.07,WNW,285,0.0,0.0,80,0.00,,---,0.00,0.00,VWS V14.01,2013-08-10 11:30:00,
2013-08-10 06:35:00,58.0,51.9,30.07,WNW,285,0.0,0.0,80,0.00,,---,0.00,7.00,VWS V14.01,2013-08-10 11:35:00,
2013-08-10 06:40:00,57.8,51.7,30.07,WNW,285,0.0,0.0,80,0.00,,---,0.00,7.00,VWS V14.01,2013-08-10 11:40:00,
2013-08-10 06:45:00,57.6,51.5,30.07,WNW,285,0.0,0.0,80,0.00,,---,0.00,7.00,VWS V14.01,2013-08-10 11:45:00,
2013-08-10 06:50:00,57.5,51.4,30.07,WNW,285,1.0,1.0,80,0.00,,---,0.00,14.00,VWS V14.01,2013-08-10 11:50:00,
2013-08-10 06:55:00,57.5,51.4,30.07,WNW,285,1.0,1.0,80,0.00,,---,0.00,18.00,VWS V14.01,2013-08-10 11:55:00,
2013-08-10 07:00:00,57.5,51.4,30.07,WNW,285,1.0,1.0,80,0.00,,---,0.00,21.00,VWS V14.01,2013-08-10 12:00:00,
2013-08-10 07:05:00,57.5,52.7,30.07,WNW,285,1.0,1.0,84,0.00,,---,0.00,21.00,VWS V14.01,2013-08-10 12:05:00,
2013-08-10 07:10:00,57.5,52.7,30.07,West,281,1.0,1.0,84,0.00,,---,0.00,33.00,VWS V14.01,2013-08-10 12:10:00,
2013-08-10 07:15:00,57.5,52.7,30.07,WNW,296,3.0,3.0,84,0.00,,---,0.00,33.00,VWS V14.01,2013-08-10 12:15:00,
2013-08-10 07:20:00,58.0,53.2,30.07,WNW,285,1.0,1.0,84,0.00,,---,0.00,33.00,VWS V14.01,2013-08-10 12:20:00,
2013-08-10 07:25:00,58.1,53.3,30.07,WNW,287,0.0,0.0,84,0.00,,---,0.00,33.00,VWS V14.01,2013-08-10 12:25:00,
2013-08-10 07:30:00,58.4,53.6,30.07,NW,311,0.0,0.0,84,0.00,,---,0.00,33.00,VWS V14.01,2013-08-10 12:30:00,
2013-08-10 07:35:00,58.6,53.8,30.07,NW,304,1.0,2.0,84,0.00,,---,0.00,202.00,VWS V14.01,2013-08-10 12:35:00,
2013-08-10 07:40:00,59.0,54.2,30.07,West,275,0.0,1.0,84,0.00,,---,0.00,202.00,VWS V14.01,2013-08-10 12:40:00,
2013-08-10 07:45:00,59.3,54.5,30.08,WNW,294,1.0,3.0,84,0.00,,---,0.00,238.00,VWS V14.01,2013-08-10 12:45:00,
2013-08-10 07:50:00,59.5,54.0,30.08,West,280,0.0,2.0,82,0.00,,---,0.00,238.00,VWS V14.01,2013-08-10 12:50:00,
2013-08-10 07:55:00,59.9,54.4,30.08,WNW,285,2.0,2.0,82,0.00,,---,0.00,238.00,VWS V14.01,2013-08-10 12:55:00,
2013-08-10 08:00:00,60.2,54.0,30.08,West,281,0.0,1.0,80,0.00,,---,0.00,238.00,VWS V14.01,2013-08-10 13:00:00,
2013-08-10 08:05:00,60.7,54.5,30.08,WNW,296,1.0,1.0,80,0.00,,---,0.00,292.00,VWS V14.01,2013-08-10 13:05:00,
2013-08-10 08:10:00,61.2,54.6,30.08,WNW,285,0.0,0.0,79,0.00,,---,0.00,310.00,VWS V14.01,2013-08-10 13:10:00,
2013-08-10 08:15:00,61.6,54.0,30.08,WNW,301,3.0,3.0,76,0.00,,---,0.00,310.00,VWS V14.01,2013-08-10 13:15:00,
2013-08-10 08:20:00,61.6,54.0,30.08,West,280,0.0,0.0,76,0.00,,---,0.00,343.00,VWS V14.01,2013-08-10 13:20:00,
2013-08-10 08:25:00,62.4,54.0,30.08,WNW,284,3.0,3.0,74,0.00,,---,0.00,343.00,VWS V14.01,2013-08-10 13:25:00,
2013-08-10 08:30:00,62.7,54.3,30.08,WNW,288,1.0,1.0,74,0.00,,---,0.00,368.00,VWS V14.01,2013-08-10 13:30:00,
2013-08-10 08:35:00,62.9,54.1,30.08,WNW,291,3.0,3.0,73,0.00,,---,0.00,368.00,VWS V14.01,2013-08-10 13:35:00,
2013-08-10 08:40:00,63.1,54.3,30.08,WNW,292,1.0,2.0,73,0.00,,---,0.00,368.00,VWS V14.01,2013-08-10 13:40:00,
2013-08-10 08:45:00,63.7,54.9,30.07,West,274,0.0,0.0,73,0.00,,---,0.00,368.00,VWS V14.01,2013-08-10 13:45:00,
2013-08-10 08:50:00,64.3,55.5,30.07,West,267,0.0,1.0,73,0.00,,---,0.00,368.00,VWS V14.01,2013-08-10 13:50:00,
2013-08-10 08:55:00,64.8,54.4,30.07,WNW,301,1.0,1.0,69,0.00,,---,0.00,368.00,VWS V14.01,2013-08-10 13:55:00,
2013-08-10 09:00:00,65.2,54.0,30.07,North,10,1.0,1.0,67,0.00,,---,0.00,456.00,VWS V14.01,2013-08-10 14:00:00,
2013-08-10 09:05:00,65.8,54.5,30.07,West,274,1.0,1.0,67,0.00,,---,0.00,479.00,VWS V14.01,2013-08-10 14:05:00,
2013-08-10 09:10:00,66.1,54.8,30.07,WNW,282,1.0,1.0,67,0.00,,---,0.00,484.00,VWS V14.01,2013-08-10 14:10:00,
2013-08-10 09:15:00,66.0,54.7,30.07,WNW,295,0.0,1.0,67,0.00,,---,0.00,484.00,VWS V14.01,2013-08-10 14:15:00,
2013-08-10 09:20:00,66.3,54.2,30.07,WNW,301,2.0,2.0,65,0.00,,---,0.00,510.00,VWS V14.01,2013-08-10 14:20:00,
2013-08-10 09:25:00,66.8,54.7,30.07,WNW,282,3.0,3.0,65,0.00,,---,0.00,510.00,VWS V14.01,2013-08-10 14:25:00,
2013-08-10 09:30:00,66.8,54.7,30.07,WNW,288,1.0,1.0,65,0.00,,---,0.00,510.00,VWS V14.01,2013-08-10 14:30:00,
2013-08-10 09:35:00,66.4,54.3,30.07,WSW,253,1.0,2.0,65,0.00,,---,0.00,510.00,VWS V14.01,2013-08-10 14:35:00,
2013-08-10 09:40:00,66.4,53.9,30.07,WNW,302,3.0,3.0,64,0.00,,---,0.00,510.00,VWS V14.01,2013-08-10 14:40:00,
2013-08-10 09:45:00,66.8,54.2,30.07,WSW,243,1.0,5.0,64,0.00,,---,0.00,510.00,VWS V14.01,2013-08-10 14:45:00,
2013-08-10 09:50:00,66.8,54.2,30.07,WNW,296,3.0,3.0,64,0.00,,---,0.00,596.00,VWS V14.01,2013-08-10 14:50:00,
2013-08-10 09:55:00,67.1,54.5,30.07,WNW,289,1.0,1.0,64,0.00,,---,0.00,596.00,VWS V14.01,2013-08-10 14:55:00,
2013-08-10 10:00:00,67.4,54.8,30.07,WNW,291,1.0,1.0,64,0.00,,---,0.00,596.00,VWS V14.01,2013-08-10 15:00:00,
2013-08-10 10:05:00,67.6,53.7,30.07,West,278,0.0,0.0,61,0.00,,---,0.00,596.00,VWS V14.01,2013-08-10 15:05:00,
2013-08-10 10:10:00,67.9,54.0,30.07,West,281,0.0,0.0,61,0.00,,---,0.00,596.00,VWS V14.01,2013-08-10 15:10:00,
2013-08-10 10:15:00,68.9,54.9,30.07,West,280,1.0,3.0,61,0.00,,---,0.00,596.00,VWS V14.01,2013-08-10 15:15:00,
2013-08-10 10:20:00,68.9,54.9,30.07,WSW,251,1.0,2.0,61,0.00,,---,0.00,596.00,VWS V14.01,2013-08-10 15:20:00,
2013-08-10 10:25:00,69.9,55.8,30.07,WNW,302,6.0,6.0,61,0.00,,---,0.00,596.00,VWS V14.01,2013-08-10 15:25:00,
2013-08-10 10:30:00,70.4,53.5,30.07,SSW,192,0.0,3.0,55,0.00,,---,0.00,706.00,VWS V14.01,2013-08-10 15:30:00,
2013-08-10 10:35:00,70.1,53.2,30.07,SSW,195,5.0,5.0,55,0.00,,---,0.00,706.00,VWS V14.01,2013-08-10 15:35:00,
2013-08-10 10:40:00,70.1,53.2,30.07,WSW,248,0.0,0.0,55,0.00,,---,0.00,706.00,VWS V14.01,2013-08-10 15:40:00,
2013-08-10 10:45:00,69.8,52.9,30.07,WNW,296,5.0,5.0,55,0.00,,---,0.00,706.00,VWS V14.01,2013-08-10 15:45:00,
2013-08-10 10:50:00,68.8,52.5,30.07,WNW,289,0.0,0.0,56,0.00,,---,0.00,88.00,VWS V14.01,2013-08-10 15:50:00,
2013-08-10 10:55:00,68.4,52.1,30.07,WNW,292,0.0,0.0,56,0.00,,---,0.00,88.00,VWS V14.01,2013-08-10 15:55:00,
2013-08-10 11:00:00,68.6,52.3,30.08,NW,316,3.0,3.0,56,0.00,,---,0.00,88.00,VWS V14.01,2013-08-10 16:00:00,
2013-08-10 11:05:00,68.4,52.1,30.08,South,179,0.0,5.0,56,0.00,,---,0.00,88.00,VWS V14.01,2013-08-10 16:05:00,
2013-08-10 11:10:00,68.8,52.5,30.08,West,278,2.0,2.0,56,0.00,,---,0.00,88.00,VWS V14.01,2013-08-10 16:10:00,
2013-08-10 11:15:00,69.3,52.0,30.08,North,8,3.0,3.0,54,0.00,,---,0.00,88.00,VWS V14.01,2013-08-10 16:15:00,
2013-08-10 11:20:00,69.8,51.4,30.08,NNE,18,1.0,2.0,52,0.00,,---,0.00,88.00,VWS V14.01,2013-08-10 16:20:00,
2013-08-10 11:25:00,69.9,51.5,30.08,NNE,18,1.0,1.0,52,0.00,,---,0.00,88.00,VWS V14.01,2013-08-10 16:25:00,
2013-08-10 11:30:00,70.3,51.3,30.08,WNW,282,0.0,2.0,51,0.00,,---,0.00,88.00,VWS V14.01,2013-08-10 16:30:00,
2013-08-10 11:35:00,70.8,51.8,30.08,West,277,4.0,4.0,51,0.00,,---,0.00,88.00,VWS V14.01,2013-08-10 16:35:00,
2013-08-10 11:40:00,70.4,51.4,30.08,WNW,295,0.0,0.0,51,0.00,,---,0.00,88.00,VWS V14.01,2013-08-10 16:40:00,
2013-08-10 11:45:00,70.4,51.4,30.08,WNW,295,0.0,1.0,51,0.00,,---,0.00,88.00,VWS V14.01,2013-08-10 16:45:00,
2013-08-10 11:50:00,70.6,51.6,30.08,SW,232,1.0,1.0,51,0.00,,---,0.00,88.00,VWS V14.01,2013-08-10 16:50:00,
2013-08-10 11:55:00,70.6,51.6,30.08,West,277,1.0,1.0,51,0.00,,---,0.00,88.00,VWS V14.01,2013-08-10 16:55:00,
2013-08-10 12:00:00,70.9,50.2,30.07,WNW,289,2.0,2.0,48,0.00,,---,0.00,341.00,VWS V14.01,2013-08-10 17:00:00,
2013-08-10 12:05:00,70.8,50.2,30.07,WNW,301,2.0,2.0,48,0.00,,---,0.00,341.00,VWS V14.01,2013-08-10 17:05:00,
2013-08-10 12:10:00,70.6,47.7,30.07,NNE,16,1.0,1.0,44,0.00,,---,0.00,320.00,VWS V14.01,2013-08-10 17:10:00,
2013-08-10 12:15:00,70.8,49.6,30.07,NNE,17,2.0,2.0,47,0.00,,---,0.00,320.00,VWS V14.01,2013-08-10 17:15:00,
2013-08-10 12:20:00,70.9,48.5,30.07,NNE,14,0.0,0.0,45,0.00,,---,0.00,334.00,VWS V14.01,2013-08-10 17:20:00,
2013-08-10 12:25:00,71.1,48.7,30.07,NNE,18,0.0,1.0,45,0.00,,---,0.00,334.00,VWS V14.01,2013-08-10 17:25:00,
2013-08-10 12:30:00,71.3,49.5,30.07,NE,49,2.0,2.0,46,0.00,,---,0.00,334.00,VWS V14.01,2013-08-10 17:30:00,
2013-08-10 12:35:00,71.5,49.7,30.07,WNW,295,1.0,3.0,46,0.00,,---,0.00,334.00,VWS V14.01,2013-08-10 17:35:00,
2013-08-10 12:40:00,70.8,49.0,30.07,WNW,292,7.0,7.0,46,0.00,,---,0.00,334.00,VWS V14.01,2013-08-10 17:40:00,
2013-08-10 12:45:00,70.3,48.6,30.06,West,275,3.0,4.0,46,0.00,,---,0.00,334.00,VWS V14.01,2013-08-10 17:45:00,
2013-08-10 12:50:00,69.9,48.2,30.06,West,278,0.0,0.0,46,0.00,,---,0.00,331.00,VWS V14.01,2013-08-10 17:50:00,
2013-08-10 12:55:00,70.4,48.7,30.06,NE,42,0.0,0.0,46,0.00,,---,0.00,331.00,VWS V14.01,2013-08-10 17:55:00,
2013-08-10 13:00:00,70.4,48.7,30.06,ENE,71,0.0,0.0,46,0.00,,---,0.00,347.00,VWS V14.01,2013-08-10 18:00:00,
2013-08-10 13:05:00,70.4,48.7,30.06,WNW,282,2.0,2.0,46,0.00,,---,0.00,347.00,VWS V14.01,2013-08-10 18:05:00,
2013-08-10 13:10:00,70.9,49.1,30.06,NE,35,2.0,2.0,46,0.00,,---,0.00,347.00,VWS V14.01,2013-08-10 18:10:00,
2013-08-10 13:15:00,70.9,49.1,30.07,NNE,13,1.0,1.0,46,0.00,,---,0.00,347.00,VWS V14.01,2013-08-10 18:15:00,
2013-08-10 13:20:00,71.3,49.5,30.07,NE,48,1.0,1.0,46,0.00,,---,0.00,322.00,VWS V14.01,2013-08-10 18:20:00,
2013-08-10 13:25:00,71.5,50.8,30.07,West,280,1.0,1.0,48,0.00,,---,0.00,322.00,VWS V14.01,2013-08-10 18:25:00,
2013-08-10 13:30:00,71.6,50.3,30.07,West,280,0.0,0.0,47,0.00,,---,0.00,322.00,VWS V14.01,2013-08-10 18:30:00,
2013-08-10 13:35:00,72.1,50.2,30.07,NW,326,1.0,1.0,46,0.00,,---,0.00,322.00,VWS V14.01,2013-08-10 18:35:00,
2013-08-10 13:40:00,72.1,50.8,30.07,North,1,0.0,3.0,47,0.00,,---,0.00,331.00,VWS V14.01,2013-08-10 18:40:00,
2013-08-10 13:45:00,72.0,50.7,30.06,NW,312,1.0,1.0,47,0.00,,---,0.00,331.00,VWS V14.01,2013-08-10 18:45:00,
2013-08-10 13:50:00,72.0,50.7,30.06,NNE,13,2.0,2.0,47,0.00,,---,0.00,331.00,VWS V14.01,2013-08-10 18:50:00,
2013-08-10 13:55:00,72.1,50.8,30.06,NE,41,0.0,0.0,47,0.00,,---,0.00,331.00,VWS V14.01,2013-08-10 18:55:00,
2013-08-10 14:00:00,72.0,50.7,30.06,ENE,78,0.0,0.0,47,0.00,,---,0.00,331.00,VWS V14.01,2013-08-10 19:00:00,
2013-08-10 14:05:00,72.3,51.0,30.06,NE,54,0.0,0.0,47,0.00,,---,0.00,313.00,VWS V14.01,2013-08-10 19:05:00,
2013-08-10 14:10:00,73.0,51.6,30.06,SSW,195,5.0,5.0,47,0.00,,---,0.00,313.00,VWS V14.01,2013-08-10 19:10:00,
2013-08-10 14:15:00,73.5,52.1,30.06,WNW,291,2.0,3.0,47,0.00,,---,0.00,313.00,VWS V14.01,2013-08-10 19:15:00,
2013-08-10 14:20:00,73.2,51.8,30.06,NW,312,0.0,2.0,47,0.00,,---,0.00,480.00,VWS V14.01,2013-08-10 19:20:00,
2013-08-10 14:25:00,73.2,51.8,30.06,NW,309,1.0,5.0,47,0.00,,---,0.00,431.00,VWS V14.01,2013-08-10 19:25:00,
2013-08-10 14:30:00,72.8,51.4,30.06,WNW,298,1.0,1.0,47,0.00,,---,0.00,431.00,VWS V14.01,2013-08-10 19:30:00,
2013-08-10 14:35:00,73.0,49.8,30.06,WNW,284,2.0,2.0,44,0.00,,---,0.00,431.00,VWS V14.01,2013-08-10 19:35:00,
2013-08-10 14:40:00,74.4,51.1,30.06,NW,306,1.0,2.0,44,0.00,,---,0.00,431.00,VWS V14.01,2013-08-10 19:40:00,
2013-08-10 14:45:00,74.6,51.3,30.05,West,281,0.0,0.0,44,0.00,,---,0.00,431.00,VWS V14.01,2013-08-10 19:45:00,
2013-08-10 14:50:00,74.6,51.3,30.05,East,96,0.0,1.0,44,0.00,,---,0.00,431.00,VWS V14.01,2013-08-10 19:50:00,
2013-08-10 14:55:00,74.7,51.4,30.05,ENE,64,0.0,0.0,44,0.00,,---,0.00,431.00,VWS V14.01,2013-08-10 19:55:00,
2013-08-10 15:00:00,74.7,51.4,30.04,East,82,0.0,0.0,44,0.00,,---,0.00,431.00,VWS V14.01,2013-08-10 20:00:00,
2013-08-10 15:05:00,74.6,51.3,30.04,NW,315,1.0,1.0,44,0.00,,---,0.00,431.00,VWS V14.01,2013-08-10 20:05:00,
2013-08-10 15:10:00,73.9,50.6,30.04,North,6,1.0,2.0,44,0.00,,---,0.00,431.00,VWS V14.01,2013-08-10 20:10:00,
2013-08-10 15:15:00,73.5,51.5,30.04,North,4,4.0,4.0,46,0.00,,---,0.00,236.00,VWS V14.01,2013-08-10 20:15:00,
2013-08-10 15:20:00,73.2,50.0,30.04,North,350,0.0,3.0,44,0.00,,---,0.00,262.00,VWS V14.01,2013-08-10 20:20:00,
2013-08-10 15:25:00,73.0,49.8,30.04,ENE,64,1.0,1.0,44,0.00,,---,0.00,262.00,VWS V14.01,2013-08-10 20:25:00,
2013-08-10 15:30:00,73.0,49.8,30.04,East,86,1.0,1.0,44,0.00,,---,0.00,262.00,VWS V14.01,2013-08-10 20:30:00,
2013-08-10 15:35:00,72.7,49.5,30.04,ENE,68,1.0,1.0,44,0.00,,---,0.00,262.00,VWS V14.01,2013-08-10 20:35:00,
2013-08-10 15:40:00,73.0,50.4,30.04,ESE,121,3.0,3.0,45,0.00,,---,0.00,262.00,VWS V14.01,2013-08-10 20:40:00,
2013-08-10 15:45:00,73.0,52.2,30.04,East,83,1.0,1.0,48,0.00,,---,0.00,262.00,VWS V14.01,2013-08-10 20:45:00,
2013-08-10 15:50:00,73.2,52.4,30.04,WNW,287,1.0,1.0,48,0.00,,---,0.00,262.00,VWS V14.01,2013-08-10 20:50:00,
2013-08-10 15:55:00,73.5,52.6,30.04,SSW,198,2.0,3.0,48,0.00,,---,0.00,262.00,VWS V14.01,2013-08-10 20:55:00,
2013-08-10 16:00:00,73.7,52.8,30.03,West,277,0.0,0.0,48,0.00,,---,0.00,262.00,VWS V14.01,2013-08-10 21:00:00,
2013-08-10 16:05:00,74.0,53.1,30.03,NW,309,6.0,6.0,48,0.00,,---,0.00,262.00,VWS V14.01,2013-08-10 21:05:00,
2013-08-10 16:10:00,73.9,53.0,30.03,SW,222,2.0,2.0,48,0.00,,---,0.00,262.00,VWS V14.01,2013-08-10 21:10:00,
2013-08-10 16:15:00,74.0,53.1,30.03,WNW,292,1.0,2.0,48,0.00,,---,0.00,262.00,VWS V14.01,2013-08-10 21:15:00,
2013-08-10 16:20:00,74.4,51.1,30.03,SSW,195,1.0,1.0,44,0.00,,---,0.00,262.00,VWS V14.01,2013-08-10 21:20:00,
2013-08-10 16:25:00,74.6,50.7,30.03,WNW,295,0.0,2.0,43,0.00,,---,0.00,262.00,VWS V14.01,2013-08-10 21:25:00,
2013-08-10 16:30:00,74.6,50.7,30.03,SSW,208,0.0,0.0,43,0.00,,---,0.00,262.00,VWS V14.01,2013-08-10 21:30:00,
2013-08-10 16:35:00,75.3,51.3,30.03,South,174,0.0,1.0,43,0.00,,---,0.00,262.00,VWS V14.01,2013-08-10 21:35:00,
2013-08-10 16:40:00,75.3,50.7,30.03,SW,236,0.0,0.0,42,0.00,,---,0.00,239.00,VWS V14.01,2013-08-10 21:40:00,
2013-08-10 16:45:00,75.3,50.7,30.02,SW,219,0.0,1.0,42,0.00,,---,0.00,239.00,VWS V14.01,2013-08-10 21:45:00,
2013-08-10 16:50:00,75.1,49.8,30.02,SW,233,0.0,0.0,41,0.00,,---,0.00,239.00,VWS V14.01,2013-08-10 21:50:00,
2013-08-10 16:55:00,75.1,51.1,30.02,SSW,193,4.0,5.0,43,0.00,,---,0.00,239.00,VWS V14.01,2013-08-10 21:55:00,
2013-08-10 17:00:00,74.7,50.7,30.02,SSE,154,0.0,0.0,43,0.00,,---,0.00,239.00,VWS V14.01,2013-08-10 22:00:00,
2013-08-10 17:05:00,74.7,50.7,30.02,South,184,0.0,1.0,43,0.00,,---,0.00,239.00,VWS V14.01,2013-08-10 22:05:00,
2013-08-10 17:10:00,74.7,50.7,30.02,WNW,299,0.0,0.0,43,0.00,,---,0.00,236.00,VWS V14.01,2013-08-10 22:10:00,
2013-08-10 17:15:00,74.4,50.5,30.03,WNW,298,1.0,1.0,43,0.00,,---,0.00,208.00,VWS V14.01,2013-08-10 22:15:00,
2013-08-10 17:20:00,74.6,50.7,30.03,West,281,1.0,1.0,43,0.00,,---,0.00,208.00,VWS V14.01,2013-08-10 22:20:00,
2013-08-10 17:25:00,74.6,50.7,30.03,WSW,239,1.0,1.0,43,0.00,,---,0.00,208.00,VWS V14.01,2013-08-10 22:25:00,
2013-08-10 17:30:00,74.6,51.3,30.02,WNW,289,2.0,2.0,44,0.00,,---,0.00,208.00,VWS V14.01,2013-08-10 22:30:00,
2013-08-10 17:35:00,74.6,51.3,30.02,NW,309,0.0,1.0,44,0.00,,---,0.00,181.00,VWS V14.01,2013-08-10 22:35:00,
2013-08-10 17:40:00,74.4,51.1,30.02,WNW,294,1.0,1.0,44,0.00,,---,0.00,176.00,VWS V14.01,2013-08-10 22:40:00,
2013-08-10 17:45:00,74.4,51.1,30.02,WNW,294,0.0,0.0,44,0.00,,---,0.00,176.00,VWS V14.01,2013-08-10 22:45:00,
2013-08-10 17:50:00,73.9,50.6,30.02,WNW,294,0.0,0.0,44,0.00,,---,0.00,176.00,VWS V14.01,2013-08-10 22:50:00,
2013-08-10 17:55:00,73.9,50.6,30.02,WNW,294,0.0,0.0,44,0.00,,---,0.00,176.00,VWS V14.01,2013-08-10 22:55:00,
2013-08-10 18:00:00,73.9,50.0,30.02,WNW,298,0.0,0.0,43,0.00,,---,0.00,172.00,VWS V14.01,2013-08-10 23:00:00,
2013-08-10 18:05:00,73.7,49.8,30.02,WNW,298,0.0,0.0,43,0.00,,---,0.00,172.00,VWS V14.01,2013-08-10 23:05:00,
2013-08-10 18:10:00,73.5,50.9,30.02,WNW,292,1.0,2.0,45,0.00,,---,0.00,172.00,VWS V14.01,2013-08-10 23:10:00,
2013-08-10 18:15:00,73.0,50.4,30.01,WNW,294,2.0,2.0,45,0.00,,---,0.00,172.00,VWS V14.01,2013-08-10 23:15:00,
2013-08-10 18:20:00,72.8,50.2,30.01,WNW,298,1.0,1.0,45,0.00,,---,0.00,172.00,VWS V14.01,2013-08-10 23:20:00,
2013-08-10 18:25:00,72.7,50.2,30.01,WNW,298,2.0,2.0,45,0.00,,---,0.00,150.00,VWS V14.01,2013-08-10 23:25:00,
2013-08-10 18:30:00,72.7,50.2,30.01,WNW,292,2.0,2.0,45,0.00,,---,0.00,106.00,VWS V14.01,2013-08-10 23:30:00,
2013-08-10 18:35:00,72.7,50.8,30.01,WNW,292,1.0,1.0,46,0.00,,---,0.00,106.00,VWS V14.01,2013-08-10 23:35:00,
2013-08-10 18:40:00,72.5,51.2,30.01,WNW,288,1.0,2.0,47,0.00,,---,0.00,106.00,VWS V14.01,2013-08-10 23:40:00,
2013-08-10 18:45:00,72.5,51.2,30.01,WNW,289,0.0,0.0,47,0.00,,---,0.00,106.00,VWS V14.01,2013-08-10 23:45:00,
2013-08-10 18:50:00,72.7,51.3,30.01,NW,304,0.0,0.0,47,0.00,,---,0.00,106.00,VWS V14.01,2013-08-10 23:50:00,
2013-08-10 18:55:00,72.7,51.3,30.01,WNW,301,0.0,2.0,47,0.00,,---,0.00,106.00,VWS V14.01,2013-08-10 23:55:00,
2013-08-10 19:00:00,72.7,51.3,30.00,NW,304,0.0,1.0,47,0.00,,---,0.00,69.00,VWS V14.01,2013-08-11 00:00:00,
2013-08-10 19:05:00,72.1,50.8,30.00,North,0,0.0,0.0,47,0.00,,---,0.00,69.00,VWS V14.01,2013-08-11 00:05:00,
2013-08-10 19:10:00,72.1,50.8,30.00,NW,313,2.0,2.0,47,0.00,,---,0.00,69.00,VWS V14.01,2013-08-11 00:10:00,
2013-08-10 19:15:00,72.1,50.8,30.00,WNW,301,1.0,1.0,47,0.00,,---,0.00,69.00,VWS V14.01,2013-08-11 00:15:00,
2013-08-10 19:20:00,71.8,50.5,30.00,WNW,298,1.0,1.0,47,0.00,,---,0.00,69.00,VWS V14.01,2013-08-11 00:20:00,
2013-08-10 19:25:00,71.8,51.6,30.00,WNW,298,0.0,0.0,49,0.00,,---,0.00,69.00,VWS V14.01,2013-08-11 00:25:00,
2013-08-10 19:30:00,71.8,51.6,29.99,WNW,298,0.0,0.0,49,0.00,,---,0.00,62.00,VWS V14.01,2013-08-11 00:30:00,
2013-08-10 19:35:00,71.6,51.5,29.99,WNW,298,0.0,0.0,49,0.00,,---,0.00,62.00,VWS V14.01,2013-08-11 00:35:00,
2013-08-10 19:40:00,71.6,52.5,29.99,WNW,298,0.0,0.0,51,0.00,,---,0.00,62.00,VWS V14.01,2013-08-11 00:40:00,
2013-08-10 19:45:00,71.6,53.1,29.99,WNW,298,0.0,0.0,52,0.00,,---,0.00,48.00,VWS V14.01,2013-08-11 00:45:00,
2013-08-10 19:50:00,71.3,52.8,29.99,WNW,298,0.0,0.0,52,0.00,,---,0.00,48.00,VWS V14.01,2013-08-11 00:50:00,
2013-08-10 19:55:00,71.3,52.8,29.99,WNW,298,0.0,0.0,52,0.00,,---,0.00,48.00,VWS V14.01,2013-08-11 00:55:00,
2013-08-10 20:00:00,71.1,53.1,29.99,WNW,298,0.0,0.0,53,0.00,,---,0.00,25.00,VWS V14.01,2013-08-11 01:00:00,
2013-08-10 20:05:00,70.9,52.9,29.99,WNW,298,0.0,0.0,53,0.00,,---,0.00,23.00,VWS V14.01,2013-08-11 01:05:00,
2013-08-10 20:10:00,70.8,53.8,29.99,WNW,298,0.0,0.0,55,0.00,,---,0.00,23.00,VWS V14.01,2013-08-11 01:10:00,
2013-08-10 20:15:00,70.4,53.0,29.98,WNW,298,0.0,0.0,54,0.00,,---,0.00,23.00,VWS V14.01,2013-08-11 01:15:00,
2013-08-10 20:20:00,70.4,53.0,29.98,WNW,298,0.0,0.0,54,0.00,,---,0.00,23.00,VWS V14.01,2013-08-11 01:20:00,
2013-08-10 20:25:00,69.9,52.5,29.98,WNW,298,0.0,0.0,54,0.00,,---,0.00,23.00,VWS V14.01,2013-08-11 01:25:00,
2013-08-10 20:30:00,69.6,52.7,29.98,WNW,298,0.0,0.0,55,0.00,,---,0.00,23.00,VWS V14.01,2013-08-11 01:30:00,
2013-08-10 20:35:00,69.6,52.7,29.98,WNW,298,0.0,0.0,55,0.00,,---,0.00,23.00,VWS V14.01,2013-08-11 01:35:00,
2013-08-10 20:40:00,69.1,52.3,29.98,WNW,298,0.0,0.0,55,0.00,,---,0.00,23.00,VWS V14.01,2013-08-11 01:40:00,
2013-08-10 20:45:00,69.1,53.2,29.98,WNW,298,0.0,0.0,57,0.00,,---,0.00,0.00,VWS V14.01,2013-08-11 01:45:00,
2013-08-10 20:50:00,68.6,52.8,29.98,WNW,298,0.0,0.0,57,0.00,,---,0.00,0.00,VWS V14.01,2013-08-11 01:50:00,
2013-08-10 20:55:00,68.3,52.5,29.98,WNW,298,0.0,0.0,57,0.00,,---,0.00,0.00,VWS V14.01,2013-08-11 01:55:00,
2013-08-10 21:00:00,68.1,53.2,29.98,WNW,298,0.0,0.0,59,0.00,,---,0.00,0.00,VWS V14.01,2013-08-11 02:00:00,
2013-08-10 21:05:00,67.8,53.0,29.98,WNW,298,0.0,0.0,59,0.00,,---,0.00,0.00,VWS V14.01,2013-08-11 02:05:00,
2013-08-10 21:10:00,67.4,52.6,29.98,WNW,298,0.0,0.0,59,0.00,,---,0.00,0.00,VWS V14.01,2013-08-11 02:10:00,
2013-08-10 21:15:00,67.3,52.5,29.98,WNW,298,0.0,0.0,59,0.00,,---,0.00,0.00,VWS V14.01,2013-08-11 02:15:00,
2013-08-10 21:20:00,66.9,52.1,29.98,WNW,298,0.0,0.0,59,0.00,,---,0.00,0.00,VWS V14.01,2013-08-11 02:20:00,
2013-08-10 21:25:00,66.4,51.7,29.98,WNW,298,0.0,0.0,59,0.00,,---,0.00,0.00,VWS V14.01,2013-08-11 02:25:00,
2013-08-10 21:30:00,66.1,51.4,29.98,WNW,298,0.0,0.0,59,0.00,,---,0.00,0.00,VWS V14.01,2013-08-11 02:30:00,
2013-08-10 21:35:00,65.6,50.9,29.98,WNW,298,0.0,0.0,59,0.00,,---,0.00,0.00,VWS V14.01,2013-08-11 02:35:00,
2013-08-10 21:40:00,65.2,50.5,29.98,WNW,298,0.0,0.0,59,0.00,,---,0.00,0.00,VWS V14.01,2013-08-11 02:40:00,
2013-08-10 21:45:00,65.2,50.5,29.99,WNW,298,0.0,0.0,59,0.00,,---,0.00,0.00,VWS V14.01,2013-08-11 02:45:00,
2013-08-10 21:50:00,64.8,53.6,29.99,WNW,298,0.0,0.0,67,0.00,,---,0.00,0.00,VWS V14.01,2013-08-11 02:50:00,
2013-08-10 21:55:00,64.5,53.3,29.99,WNW,298,0.0,0.0,67,0.00,,---,0.00,0.00,VWS V14.01,2013-08-11 02:55:00,
2013-08-10 22:00:00,64.3,53.1,29.99,WNW,298,0.0,0.0,67,0.00,,---,0.00,0.00,VWS V14.01,2013-08-11 03:00:00,
2013-08-10 22:05:00,64.2,53.0,29.99,WNW,298,0.0,0.0,67,0.00,,---,0.00,0.00,VWS V14.01,2013-08-11 03:05:00,
2013-08-10 22:10:00,63.7,52.5,29.99,WNW,298,0.0,0.0,67,0.00,,---,0.00,0.00,VWS V14.01,2013-08-11 03:10:00,
2013-08-10 22:15:00,63.4,53.5,29.99,WNW,298,0.0,0.0,70,0.00,,---,0.00,0.00,VWS V14.01,2013-08-11 03:15:00,
2013-08-10 22:20:00,63.2,53.3,29.99,WNW,298,0.0,0.0,70,0.00,,---,0.00,0.00,VWS V14.01,2013-08-11 03:20:00,
2013-08-10 22:26:00,62.9,53.0,29.99,WNW,299,0.0,0.0,70,0.00,,---,0.00,0.00,VWS V14.01,2013-08-11 03:26:00,
2013-08-10 22:31:00,62.7,53.2,29.98,WNW,299,0.0,0.0,71,0.00,,---,0.00,0.00,VWS V14.01,2013-08-11 03:31:00,
2013-08-10 22:36:00,62.6,53.1,29.98,WNW,299,0.0,0.0,71,0.00,,---,0.00,0.00,VWS V14.01,2013-08-11 03:36:00,
2013-08-10 22:41:00,62.4,52.9,29.98,WNW,299,0.0,0.0,71,0.00,,---,0.00,0.00,VWS V14.01,2013-08-11 03:41:00,
2013-08-10 22:46:00,62.3,52.8,29.98,WNW,299,0.0,0.0,71,0.00,,---,0.00,0.00,VWS V14.01,2013-08-11 03:46:00,
2013-08-10 22:51:00,62.1,53.3,29.98,WNW,302,0.0,0.0,73,0.00,,---,0.00,0.00,VWS V14.01,2013-08-11 03:51:00,
2013-08-10 22:56:00,62.1,53.3,29.98,WNW,302,0.0,0.0,73,0.00,,---,0.00,0.00,VWS V14.01,2013-08-11 03:56:00,
2013-08-10 23:01:00,62.0,53.3,29.99,NW,304,0.0,0.0,73,0.00,,---,0.00,0.00,VWS V14.01,2013-08-11 04:01:00,
2013-08-10 23:06:00,61.8,53.1,29.99,NW,304,0.0,0.0,73,0.00,,---,0.00,0.00,VWS V14.01,2013-08-11 04:06:00,
2013-08-10 23:11:00,61.8,53.1,29.99,WNW,299,0.0,0.0,73,0.00,,---,0.00,0.00,VWS V14.01,2013-08-11 04:11:00,
2013-08-10 23:16:00,61.8,53.1,29.99,NW,304,0.0,0.0,73,0.00,,---,0.00,0.00,VWS V14.01,2013-08-11 04:16:00,
2013-08-10 23:21:00,61.8,53.1,29.99,NW,304,0.0,0.0,73,0.00,,---,0.00,0.00,VWS V14.01,2013-08-11 04:21:00,
2013-08-10 23:26:00,61.8,53.1,29.99,NW,304,0.0,0.0,73,0.00,,---,0.00,0.00,VWS V14.01,2013-08-11 04:26:00,
2013-08-10 23:31:00,61.8,53.1,29.99,NW,304,0.0,0.0,73,0.00,,---,0.00,0.00,VWS V14.01,2013-08-11 04:31:00,
2013-08-10 23:36:00,61.8,54.2,29.99,NW,304,0.0,0.0,76,0.00,,---,0.00,0.00,VWS V14.01,2013-08-11 04:36:00,
2013-08-10 23:41:00,61.8,54.2,29.99,NW,304,0.0,0.0,76,0.00,,---,0.00,0.00,VWS V14.01,2013-08-11 04:41:00,
2013-08-10 23:46:00,62.0,54.4,29.98,NW,304,0.0,0.0,76,0.00,,---,0.00,0.00,VWS V14.01,2013-08-11 04:46:00,
2013-08-10 23:51:00,62.0,54.4,29.98,NW,304,0.0,0.0,76,0.00,,---,0.00,0.00,VWS V14.01,2013-08-11 04:51:00,
2013-08-10 23:56:00,62.0,54.4,29.98,NW,304,0.0,0.0,76,0.00,,---,0.00,0.00,VWS V14.01,2013-08-11 04:56:00,